Location: Wells
(51.2093°N, 2.6446°W)
Time: 08:35:52
(UTC+01:00)

SO-50 - Pass Details

Date: 19 March 2026
Orbit: 567 x 673 km, 64.6° (Epoch: 17 April)

Event Time Altitude Azimuth Distance (km) Brightness Sun altitude
Rises 22:50:39 0° 315° (NW) 3,024 ? -35.8°
Reaches altitude 10° 22:53:24 10° 329° (NNW) 2,114 ? -36.0°
Enters shadow 22:55:44 20° 355° (N) 1,546 ? -36.1°
